This is the latest recevied weather packets stored in our database for station/object OM2RC-6. If no packets are shown the sender has not sent any weather packets the latest 1 day(s).
| Time | Temp. | Humidity | Pressure | Rain* | Wind** | Luminosity | Snow |
|---|---|---|---|---|---|---|---|
| 1778045142 | 17.78° C | 100% | 1010.3 hPa | - | - | - | - |
| 1778044841 | 17.78° C | 100% | 1010.4 hPa | - | - | - | - |
| 1778044540 | 16.67° C | 100% | 1010.4 hPa | - | - | - | - |
| 1778043637 | 15.56° C | 100% | 1010.3 hPa | - | - | - | - |
| 1778043333 | 16.11° C | 100% | 1010.2 hPa | - | - | - | - |
| 1778042731 | 14.44° C | 100% | 1010.1 hPa | - | - | - | - |
| 1778042430 | 13.89° C | 100% | 1010.1 hPa | - | - | - | - |
| 1778042129 | 14.44° C | 100% | 1010 hPa | - | - | - | - |
| 1778041828 | 13.33° C | 100% | 1009.9 hPa | - | - | - | - |
| 1778041527 | 14.44° C | 100% | 1009.8 hPa | - | - | - | - |
| 1778041226 | 13.89° C | 100% | 1009.8 hPa | - | - | - | - |
| 1778040922 | 13.89° C | 100% | 1009.7 hPa | - | - | - | - |
| 1778040621 | 14.44° C | 100% | 1009.7 hPa | - | - | - | - |
| 1778040320 | 14.44° C | 100% | 1009.6 hPa | - | - | - | - |
| 1778040019 | 13.89° C | 100% | 1009.7 hPa | - | - | - | - |
| 1778038213 | 13.33° C | 100% | 1009.6 hPa | - | - | - | - |
| 1778037310 | 13.33° C | 100% | 1009.4 hPa | - | - | - | - |
| 1778037009 | 13.33° C | 100% | 1009.4 hPa | - | - | - | - |
| 1778036407 | 13.89° C | 100% | 1009.1 hPa | - | - | - | - |
| 1778036106 | 13.89° C | 100% | 1009.2 hPa | - | - | - | - |
| 1778035502 | 14.44° C | 100% | 1009.1 hPa | - | - | - | - |
| 1778035201 | 14.44° C | 100% | 1009.1 hPa | - | - | - | - |
| 1778034900 | 14.44° C | 100% | 1009.1 hPa | - | - | - | - |
| 1778034298 | 14.44° C | 100% | 1009.1 hPa | - | - | - | - |
| 1778033696 | 14.44° C | 100% | 1009.1 hPa | - | - | - | - |
* Rain since midnight (hover to see other rain measurements)
** Current wind speed in m/s (hover to see current wind gust speed)